H1 CPF 2 NER 2023 7 19 9 200 01 glonass135 H2 1600801 9135 41330 2023 7 19 0 0 0 2023 7 22 23 45 0 900 1 1 0 0 0 1 H9 10 0 60144 0.00000 0 15639401.003 20176615.200 -496738.718 10 0 60144 900.00000 0 15707592.001 19943676.802 2731583.578 10 0 60144 1800.00000 0 15488952.835 19419607.859 5906992.300 10 0 60144 2700.00000 0 14951643.151 18652105.298 8967975.544 10 0 60144 3600.00000 0 14075355.438 17695952.465 11855227.658 10 0 60144 4500.00000 0 12852397.106 16610607.716 14512790.748 10 0 60144 5400.00000 0 11288255.414 15457614.901 16889132.605 10 0 60144 6300.00000 0 9401620.345 14297943.944 18938140.792 10 0 60144 7200.00000 0 7223862.911 13189372.537 20620014.139 10 0 60144 8100.00000 0 4797988.784 12184018.270 21902034.839 10 0 60144 9000.00000 0 2177108.783 11326124.271 22759206.466 10 0 60144 9900.00000 0 -577512.218 10650191.085 23174745.552 10 0 60144 10800.00000 0 -3398748.925 10179533.177 23140416.981 10 0 60144 11700.00000 0 -6216158.404 9925321.045 22656706.130 10 0 60144 12600.00000 0 -8958667.911 9886149.800 21732823.569 10 0 60144 13500.00000 0 -11557297.298 10048153.255 20386541.116 10 0 60144 14400.00000 0 -13947803.553 10385659.726 18643861.163 10 0 60144 15300.00000 0 -16073137.664 10862362.996 16538524.351 10 0 60144 16200.00000 0 -17885611.321 11432959.958 14111363.924 10 0 60144 17100.00000 0 -19348682.617 12045186.444 11409518.278 10 0 60144 18000.00000 0 -20438285.481 12642165.439 8485516.342 10 0 60144 18900.00000 0 -21143646.597 13164968.104 5396253.350 10 0 60144 19800.00000 0 -21467555.148 13555278.485 2201877.142 10 0 60144 20700.00000 0 -21426073.918 13758047.883 -1035392.606 10 0 60144 21600.00000 0 -21047704.247 13724024.935 -4252488.116 10 0 60144 22500.00000 0 -20372040.747 13412052.596 -7386735.069 10 0 60144 23400.00000 0 -19447973.660 12791033.053 -10377086.237 10 0 60144 24300.00000 0 -18331516.138 11841475.913 -13165321.736 10 0 60144 25200.00000 0 -17083349.689 10556562.953 -15697191.293 10 0 60144 26100.00000 0 -15766192.923 8942683.561 -17923475.310 10 0 60144 27000.00000 0 -14442105.866 7019417.715 -19800943.627 10 0 60144 27900.00000 0 -13169844.385 4818966.931 -21293193.255 10 0 60144 28800.00000 0 -12002376.618 2385057.044 -22371349.178 10 0 60144 29700.00000 0 -10984665.789 -228641.150 -23014615.364 10 0 60144 30600.00000 0 -10151811.995 -2960507.287 -23210666.301 10 0 60144 31500.00000 0 -9527629.957 -5743299.568 -22955872.633 10 0 60144 32400.00000 0 -9123720.970 -8506718.853 -22255357.683 10 0 60144 33300.00000 0 -8939076.356 -11180102.451 -21122884.915 10 0 60144 34200.00000 0 -8960227.328 -13695136.304 -19580579.386 10 0 60144 35100.00000 0 -9161933.349 -15988473.850 -17658489.358 10 0 60144 36000.00000 0 -9508378.636 -18004153.977 -15393996.944 10 0 60144 36900.00000 0 -9954825.433 -19695718.930 -12831089.470 10 0 60144 37800.00000 0 -10449653.759 -21027945.634 -10019505.642 10 0 60144 38700.00000 0 -10936701.393 -21978119.911 -7013772.870 10 0 60144 39600.00000 0 -11357805.474 -22536801.988 -3872154.150 10 0 60144 40500.00000 0 -11655438.805 -22708052.753 -655524.484 10 0 60144 41400.00000 0 -11775330.035 -22509112.517 2573801.810 10 0 60144 42300.00000 0 -11668957.644 -21969546.618 5753270.666 10 0 60144 43200.00000 0 -11295812.866 -21129894.267 8821291.955 10 0 60144 44100.00000 0 -10625336.304 -20039877.517 11718424.576 10 0 60144 45000.00000 0 -9638446.493 -18756245.383 14388520.522 10 0 60144 45900.00000 0 -8328595.526 -17340343.149 16779806.379 10 0 60144 46800.00000 0 -6702306.411 -15855508.165 18845881.944 10 0 60144 47700.00000 0 -4779168.169 -14364400.611 20546617.121 10 0 60144 48600.00000 0 -2591287.081 -12926380.276 21848930.200 10 0 60144 49500.00000 0 -182214.858 -11595038.564 22727432.731 10 0 60144 50400.00000 0 2394603.809 -10415988.527 23164928.542 10 0 60144 51300.00000 0 5077801.958 -9425005.210 23152756.984 10 0 60144 52200.00000 0 7800399.511 -8646594.115 22690973.252 10 0 60144 53100.00000 0 10492356.688 -8093048.080 21788361.393 10 0 60144 54000.00000 0 13083266.982 -7764032.573 20462278.695 10 0 60144 54900.00000 0 15505078.702 -7646717.507 18738333.152 10 0 60144 55800.00000 0 17694732.206 -7716450.746 16649898.976 10 0 60144 56700.00000 0 19596602.925 -7937945.596 14237478.284 10 0 60144 57600.00000 0 21164647.812 -8266932.702 11547920.313 10 0 60144 58500.00000 0 22364164.731 -8652206.741 8633512.674 10 0 60144 59400.00000 0 23173090.363 -9037981.128 5550962.042 10 0 60144 60300.00000 0 23582781.444 -9366450.399 2360284.319 10 0 60144 61200.00000 0 23598245.997 -9580450.630 -876373.423 10 0 60144 62100.00000 0 23237814.735 -9626103.673 -4095955.203 10 0 60144 63000.00000 0 22532266.752 -9455331.508 -7235737.451 10 0 60144 63900.00000 0 21523447.109 -9028132.384 -10234563.688 10 0 60144 64800.00000 0 20262435.685 -8314520.720 -13034047.060 10 0 60144 65700.00000 0 18807345.875 -7296047.223 -15579716.066 10 0 60144 66600.00000 0 17220847.348 -5966833.850 -17822080.179 10 0 60144 67500.00000 0 15567518.532 -4334079.147 -19717594.125 10 0 60144 68400.00000 0 13911141.334 -2418012.184 -21229501.987 10 0 60144 69300.00000 0 12312052.460 -251296.836 -22328545.045 10 0 60144 70200.00000 0 10824662.712 2122088.619 -22993520.376 10 0 60144 71100.00000 0 9495247.915 4648449.668 -23211680.359 10 0 60144 72000.00000 0 8360103.139 7266384.646 -22978966.499 10 0 60144 72900.00000 0 7444136.107 9909121.044 -22300074.243 10 0 60144 73800.00000 0 6759956.968 12507081.993 -21188348.629 10 0 60144 74700.00000 0 6307500.598 14990576.620 -19665513.744 10 0 60144 75600.00000 0 6074195.297 17292503.085 -17761241.947 10 0 60144 76500.00000 0 6035668.912 19350952.901 -15512571.659 10 0 60144 77400.00000 0 6156961.185 21111609.308 -12963185.228 10 0 60144 78300.00000 0 6394190.093 22529841.182 -10162560.851 10 0 60144 79200.00000 0 6696601.215 23572406.610 -7165014.834 10 0 60144 80100.00000 0 7008913.362 24218696.393 -4028652.447 10 0 60144 81000.00000 0 7273861.467 24461466.853 -814247.334 10 0 60144 81900.00000 0 7434829.629 24307032.355 2415929.272 10 0 60144 82800.00000 0 7438463.506 23774910.362 5599307.277 10 0 60144 83700.00000 0 7237152.148 22896934.392 8674221.725 10 0 60144 84600.00000 0 6791274.824 21715872.262 11581099.286 10 0 60144 85500.00000 0 6071118.088 20283607.405 14263604.812 10 0 60145 0.00000 0 5058382.145 18658959.166 16669726.177 10 0 60145 900.00000 0 3747211.810 16905231.800 18752778.210 10 0 60145 1800.00000 0 2144708.968 15087596.174 20472303.686 10 0 60145 2700.00000 0 270901.669 13270409.887 21794858.652 10 0 60145 3600.00000 0 -1841829.596 11514589.129 22694663.916 10 0 60145 4500.00000 0 -4149847.179 9875140.506 23154111.446 10 0 60145 5400.00000 0 -6599829.710 8398955.564 23164115.451 10 0 60145 6300.00000 0 -9130760.467 7122959.798 22724300.809 10 0 60145 7200.00000 0 -11676249.910 6072693.511 21843024.369 10 0 60145 8100.00000 0 -14167097.496 5261384.025 20537227.620 10 0 60145 9000.00000 0 -16533987.337 4689548.494 18832122.324 10 0 60145 9900.00000 0 -18710206.112 4345144.394 16760713.880 10 0 60145 10800.00000 0 -20634270.046 4204261.844 14363170.409 10 0 60145 11700.00000 0 -22252350.960 4232328.898 11686048.747 10 0 60145 12600.00000 0 -23520399.168 4385779.060 8781391.683 10 0 60145 13500.00000 0 -24405873.384 4614110.335 5705713.700 10 0 60145 14400.00000 0 -24889004.074 4862248.049 2518895.121 10 0 60145 15300.00000 0 -24963536.257 5073110.364 -716993.144 10 0 60145 16200.00000 0 -24636920.003 5190266.328 -3938910.299 10 0 60145 17100.00000 0 -23929940.377 5160572.170 -7084086.706 10 0 60145 18000.00000 0 -22875802.711 4936672.269 -10091259.570 10 0 60145 18900.00000 0 -21518712.483 4479257.111 -12901877.718 10 0 60145 19800.00000 0 -19912010.648 3758981.027 -15461250.742 10 0 60145 20700.00000 0 -18115944.221 2757957.315 -17719619.122 10 0 60145 21600.00000 0 -16195167.188 1470766.648 -19633123.968 10 0 60145 22500.00000 0 -14216077.890 -95064.393 -21164657.429 10 0 60145 23400.00000 0 -12244105.468 -1919135.087 -22284577.559 10 0 60145 24300.00000 0 -10341059.470 -3968789.721 -22971274.487 10 0 60145 25200.00000 0 -8562653.424 -6200258.123 -23211577.915 10 0 60145 26100.00000 0 -6956305.243 -8560269.761 -23000999.179 10 0 60145 27000.00000 0 -5559305.180 -10988073.948 -22343804.391 10 0 60145 27900.00000 0 -4397426.157 -13417782.036 -21252918.362 10 0 60145 28800.00000 0 -3484032.610 -15780934.240 -19749662.110 10 0 60145 29700.00000 0 -2819722.917 -18009184.728 -17863329.787 10 0 60145 30600.00000 0 -2392518.229 -20036993.910 -15630613.660 10 0 60145 31500.00000 0 -2178587.800 -21804216.699 -13094888.561 10 0 60145 32400.00000 0 -2143478.659 -23258479.951 -10305369.653 10 0 60145 33300.00000 0 -2243796.647 -24357251.110 -7316159.654 10 0 60145 34200.00000 0 -2429267.131 -25069512.866 -4185203.737 10 0 60145 35100.00000 0 -2645088.113 -25376974.916 -973171.938 10 0 60145 36000.00000 0 -2834476.355 -25274773.144 2257709.702 10 0 60145 36900.00000 0 -2941299.183 -24771627.628 5444857.063 10 0 60145 37800.00000 0 -2912681.194 -23889453.356 8526532.248 10 0 60145 38700.00000 0 -2701476.097 -22662440.044 11443031.503 10 0 60145 39600.00000 0 -2268499.597 -21135639.447 14137834.260 10 0 60145 40500.00000 0 -1584429.113 -19363118.799 16558691.689 10 0 60145 41400.00000 0 -631289.889 -17405756.895 18658634.274 10 0 60145 42300.00000 0 596535.834 -15328774.040 20396879.431 10 0 60145 43200.00000 0 2091820.255 -13199098.002 21739622.085 10 0 60145 44100.00000 0 3834544.287 -11082674.888 22660693.189 10 0 60145 45000.00000 0 5792494.446 -9041836.139 23142073.501 10 0 60145 45900.00000 0 7922379.682 -7132830.689 23174252.479 10 0 60145 46800.00000 0 10171423.912 -5403624.551 22756424.840 10 0 60145 47700.00000 0 12479370.023 -3892059.347 21896520.133 10 0 60145 48600.00000 0 14780813.739 -2624446.538 20611063.724 10 0 60145 49500.00000 0 17007771.584 -1614656.210 18924870.570 10 0 60145 50400.00000 0 19092376.745 -863738.831 16870576.436 10 0 60145 51300.00000 0 20969590.725 -360096.086 14488014.357 10 0 60145 52200.00000 0 22579817.255 -80193.825 11823447.368 10 0 60145 53100.00000 0 23871308.400 10212.873 8928671.717 10 0 60145 54000.00000 0 24802261.023 -45605.519 5860007.639 10 0 60145 54900.00000 0 25342514.424 -197426.536 2677197.490 10 0 60145 55800.00000 0 25474776.619 -390448.892 -557766.651 10 0 60145 56700.00000 0 25195326.728 -567863.384 -3781862.045 10 0 60145 57600.00000 0 24514163.224 -673510.982 -6932275.976 10 0 60145 58500.00000 0 23454591.625 -654513.614 -9947642.323 10 0 60145 59400.00000 0 22052269.245 -463764.397 -12769248.482 10 0 60145 60300.00000 0 20353747.855 -62170.135 -15342187.861 10 0 60145 61200.00000 0 18414576.589 579450.202 -17616434.445 10 0 60145 62100.00000 0 16297045.912 1478892.344 -19547817.992 10 0 60145 63000.00000 0 14067668.449 2641581.848 -21098880.743 10 0 60145 63900.00000 0 11794503.193 4060119.315 -22239599.304 10 0 60145 64800.00000 0 9544435.623 5714374.965 -22947958.382 10 0 60145 65700.00000 0 7380527.487 7572128.471 -23210366.239 10 0 60145 66600.00000 0 5359546.480 9590227.080 -23021904.952 10 0 60145 67500.00000 0 3529777.874 11716213.365 -22386411.838 10 0 60145 68400.00000 0 1929207.832 13890354.570 -21316391.600 10 0 60145 69300.00000 0 584152.320 16047988.865 -19832761.860 10 0 60145 70200.00000 0 -491613.382 18122090.958 -17964437.767 10 0 60145 71100.00000 0 -1297190.484 20045950.567 -15747764.173 10 0 60145 72000.00000 0 -1844346.008 21755852.686 -13225806.678 10 0 60145 72900.00000 0 -2156766.494 23193648.683 -10447515.248 10 0 60145 73800.00000 0 -2268809.129 24309111.811 -7466776.465 10 0 60145 74700.00000 0 -2223804.110 25061979.673 -4341372.508 10 0 60145 75600.00000 0 -2071980.561 25423599.174 -1131866.637 10 0 60145 76500.00000 0 -1868103.889 25378105.915 2099563.657 10 0 60145 77400.00000 0 -1668924.326 24923089.249 5290323.678 10 0 60145 78300.00000 0 -1530544.203 24069715.503 8378606.052 10 0 60145 79200.00000 0 -1505814.780 22842304.238 11304579.968 10 0 60145 80100.00000 0 -1641872.214 21277375.032 14011542.655 10 0 60145 81000.00000 0 -1977916.435 19422204.088 16447011.379 10 0 60145 81900.00000 0 -2543326.652 17332950.172 18563735.450 10 0 60145 82800.00000 0 -3356193.287 15072427.102 20320609.148 10 0 60145 83700.00000 0 -4422328.952 12707614.573 21683468.393 10 0 60145 84600.00000 0 -5734801.328 10307009.848 22625756.038 10 0 60145 85500.00000 0 -7274009.270 7937929.477 23129042.970 10 0 60146 0.00000 0 -9008300.826 5663872.587 23183394.788 10 0 60146 900.00000 0 -10895110.508 3542053.447 22787576.407 10 0 60146 1800.00000 0 -12882568.157 1621208.532 21949089.838 10 0 60146 2700.00000 0 -14911517.315 -60234.911 20684043.486 10 0 60146 3600.00000 0 -16917858.270 -1475549.449 19016854.048 10 0 60146 4500.00000 0 -18835119.934 -2610600.206 16979785.583 10 0 60146 5400.00000 0 -20597153.578 -3464202.063 14612333.401 10 0 60146 6300.00000 0 -22140835.720 -4047926.190 11960463.626 10 0 60146 7200.00000 0 -23408666.393 -4385363.994 9075722.464 10 0 60146 8100.00000 0 -24351152.842 -4510879.759 6014232.153 10 0 60146 9000.00000 0 -24928877.239 -4467905.119 2835593.205 10 0 60146 9900.00000 0 -25114160.079 -4306848.367 -398285.023 10 0 60146 10800.00000 0 -24892247.934 -4082708.335 -3624401.665 10 0 60146 11700.00000 0 -24261974.469 -3852495.455 -6779904.580 10 0 60146 12600.00000 0 -23235866.196 -3672571.038 -9803327.752 10 0 60146 13500.00000 0 -21839688.282 -3596019.325 -12635800.314 10 0 60146 14400.00000 0 -20111449.721 -3670165.363 -15222202.314 10 0 60146 15300.00000 0 -18099910.345 -3934345.253 -17512243.663 10 0 60146 16200.00000 0 -15862653.216 -4418024.233 -19461444.698 10 0 60146 17100.00000 0 -13463804.233 -5139342.866 -21031999.126 10 0 60146 18000.00000 0 -10971495.332 -6104153.035 -22193502.859 10 0 60146 18900.00000 0 -8455178.001 -7305584.398 -22923535.291 10 0 60146 19800.00000 0 -5982899.493 -8724159.363 -23208082.722 10 0 60146 20700.00000 0 -3618655.149 -10328451.404 -23041796.858 10 0 60146 21600.00000 0 -1419926.359 -12076258.792 -22428084.597 10 0 60146 22500.00000 0 564494.598 -13916244.299 -21379028.486 10 0 60146 23400.00000 0 2296303.921 -15789972.162 -19915140.365 10 0 60146 24300.00000 0 3749036.991 -17634257.170 -18064953.739 10 0 60146 25200.00000 0 4908916.381 -19383728.025 -15864463.240 10 0 60146 26100.00000 0 5775164.055 -20973498.285 -13356422.324 10 0 60146 27000.00000 0 6359766.964 -22341833.891 -10589512.819 10 0 60146 27900.00000 0 6686707.844 -23432706.494 -7617402.258 10 0 60146 28800.00000 0 6790695.138 -24198126.547 -4497706.986 10 0 60146 29700.00000 0 6715446.656 -24600159.260 -1290880.781 10 0 60146 30600.00000 0 6511600.017 -24612539.665 1940949.969 10 0 60146 31500.00000 0 6234338.298 -24221819.601 5135182.353 10 0 60146 32400.00000 0 5940831.072 -23427998.815 8229941.669 10 0 60146 33300.00000 0 5687598.589 -22244613.709 11165271.991 10 0 60146 34200.00000 0 5527909.981 -20698279.633 13884290.044 10 0 60146 35100.00000 0 5509324.928 -18827705.248 16334280.652 10 0 60146 36000.00000 0 5671482.234 -16682219.146 18467713.149 10 0 60146 36900.00000 0 6044228.565 -14319869.111 20243159.611 10 0 60146 37800.00000 0 6646166.538 -11805171.893 21626097.598 10 0 60146 38700.00000 0 7483684.039 -9206605.842 22589582.223 10 0 60146 39600.00000 0 8550506.832 -6593949.356 23114774.595 10 0 60146 40500.00000 0 9827794.851 -4035574.587 23191316.256 10 0 60146 41400.00000 0 11284780.122 -1595807.831 22817541.899 10 0 60146 42300.00000 0 12879921.603 667534.405 22000525.445 10 0 60146 43200.00000 0 14562530.680 2705331.686 20755957.567 10 0 60146 44100.00000 0 16274801.061 4478977.493 19107855.759 10 0 60146 45000.00000 0 17954159.496 5961752.813 17088111.278 10 0 60146 45900.00000 0 19535839.745 7139697.989 14735880.446 10 0 60146 46800.00000 0 20955572.215 8011946.196 12096831.020 10 0 60146 47700.00000 0 22152276.069 8590504.446 9222257.517 10 0 60146 48600.00000 0 23070639.908 8899491.493 6168082.294 10 0 60146 49500.00000 0 23663481.234 8973865.146 2993761.928 10 0 60146 50400.00000 0 23893783.904 8857693.473 -238879.239 10 0 60146 51300.00000 0 23736326.198 8602044.096 -3466864.654 10 0 60146 52200.00000 0 23178829.495 8262582.343 -6627305.264 10 0 60146 53100.00000 0 22222578.021 7896981.663 -9658637.671 10 0 60146 54000.00000 0 20882482.879 7562257.748 -12501835.178 10 0 60146 54900.00000 0 19186587.374 7312141.028 -15101566.762 10 0 60146 55800.00000 0 17175034.622 7194600.292 -17407280.387 10 0 60146 56700.00000 0 14898541.316 7249623.426 -19374188.917 10 0 60146 57600.00000 0 12416442.346 7507349.844 -20964139.310 10 0 60146 58500.00000 0 9794388.894 7986633.863 -22146348.422 10 0 60146 59400.00000 0 7101796.875 8694099.545 -22897991.816 10 0 60146 60300.00000 0 4409152.485 9623726.521 -23204635.136 10 0 60146 61200.00000 0 1785287.163 10756983.664 -23060500.801 10 0 60146 62100.00000 0 -705265.145 12063504.403 -22468566.071 10 0 60146 63000.00000 0 -3004719.476 13502274.782 -21440491.760 10 0 60146 63900.00000 0 -5064199.594 15023284.033 -19996383.933 10 0 60146 64800.00000 0 -6845517.980 16569568.271 -18164394.002 10 0 60146 65700.00000 0 -8322504.121 18079561.726 -15980165.468 10 0 60146 66600.00000 0 -9481827.970 19489657.272 -13486138.283 10 0 60146 67500.00000 0 -10323286.494 20736869.441 -10730724.364 10 0 60146 68400.00000 0 -10859543.452 21761488.929 -7767370.036 10 0 60146 69300.00000 0 -11115335.148 22509618.011 -4653523.352 10 0 60146 70200.00000 0 -11126177.000 22935481.191 -1449525.862 10 0 60146 71100.00000 0 -10936626.337 23003414.806 1782550.085 10 0 60146 72000.00000 0 -10598175.209 22689452.493 4980096.460 10 0 60146 72900.00000 0 -10166862.208 21982440.257 8081174.421 10 0 60146 73800.00000 0 -9700703.924 20884634.267 11025706.137 10 0 60146 74700.00000 0 -9257054.004 19411755.932 13756631.020 10 0 60146 75600.00000 0 -8890000.792 17592501.195 16221004.549 10 0 60146 76500.00000 0 -8647912.811 15467523.521 18371019.046 10 0 60146 77400.00000 0 -8571235.272 13087931.691 20164927.139 10 0 60146 78300.00000 0 -8690630.355 10513363.572 21567850.542 10 0 60146 79200.00000 0 -9025539.878 7809714.410 22552458.835 10 0 60146 80100.00000 0 -9583231.491 5046612.582 23099505.177 10 0 60146 81000.00000 0 -10358369.631 2294746.182 23198208.471 10 0 60146 81900.00000 0 -11333130.723 -376849.807 22846474.106 10 0 60146 82800.00000 0 -12477859.558 -2903434.082 22050948.240 10 0 60146 83700.00000 0 -13752241.109 -5227018.336 20826903.560 10 0 60146 84600.00000 0 -15106940.434 -7298543.440 19197957.490 10 0 60146 85500.00000 0 -16485643.323 -9079681.976 17195626.985 10 0 60147 0.00000 0 -17827413.015 -10544191.727 14858727.511 10 0 60147 900.00000 0 -19069265.246 -11678764.079 12232625.405 10 0 60147 1800.00000 0 -20148851.543 -12483329.761 9368360.597 10 0 60147 2700.00000 0 -21007139.626 -12970811.611 6321652.126 10 0 60147 3600.00000 0 -21590975.134 -13166333.001 3151808.933 10 0 60147 4500.00000 0 -21855415.918 -13105916.650 -79433.497 10 0 60147 5400.00000 0 -21765738.711 -12834729.538 -3309126.822 10 0 60147 6300.00000 0 -21299031.881 -12404949.385 -6474348.948 10 0 60147 7200.00000 0 -20445305.619 -11873344.516 -9513442.873 10 0 60147 8100.00000 0 -19208071.651 -11298671.260 -12367229.659 10 0 60147 9000.00000 0 -17604367.311 -10739000.776 -14980170.565 10 0 60147 9900.00000 0 -15664222.738 -10249090.027 -17301454.602 10 0 60147 10800.00000 0 -13429593.662 -9877909.346 -19285989.717 10 0 60147 11700.00000 0 -10952804.960 -9666431.954 -20895278.130 10 0 60147 12600.00000 0 -8294570.722 -9645779.175 -22098159.025 10 0 60147 13500.00000 0 -5521674.099 -9835799.516 -22871404.850 10 0 60147 14400.00000 0 -2704404.099 -10244141.017 -23200160.619 10 0 60147 15300.00000 0 86143.778 -10865855.223 -23078218.836 10 0 60147 16200.00000 0 2780791.087 -11683548.489 -22508125.920 10 0 60147 17100.00000 0 5314911.676 -12668073.410 -21501119.238 10 0 60147 18000.00000 0 7630870.277 -13779730.517 -20076896.951 10 0 60147 18900.00000 0 9680164.662 -14969929.195 -18263225.918 10 0 60147 19800.00000 0 11425184.195 -16183237.807 -16095395.761 10 0 60147 20700.00000 0 12840513.639 -17359736.880 -13615529.962 10 0 60147 21600.00000 0 13913730.051 -18437576.785 -10871767.378 10 0 60147 22500.00000 0 14645661.624 -19355632.944 -7917329.858 10 0 60147 23400.00000 0 15050099.563 -20056147.548 -4809493.803 10 0 60147 24300.00000 0 15152976.713 -20487247.422 -1608485.201 10 0 60147 25200.00000 0 14991048.691 -20605232.795 1623680.910 10 0 60147 26100.00000 0 14610133.807 -20376541.215 4824394.476 10 0 60147 27000.00000 0 14062986.256 -19779304.329 7931655.360 10 0 60147 27900.00000 0 13406892.234 -18804432.068 10885266.357 10 0 60147 28800.00000 0 12701089.978 -17456178.375 13627991.713 10 0 60147 29700.00000 0 12004121.997 -15752163.968 16106659.312 10 0 60147 30600.00000 0 11371230.480 -13722854.079 18273185.787 10 0 60147 31500.00000 0 10851905.058 -11410511.582 20085505.223 10 0 60147 32400.00000 0 10487685.774 -8867667.514 21508383.981 10 0 60147 33300.00000 0 10310313.555 -6155170.886 22514106.212 10 0 60147 34200.00000 0 10340306.205 -3339897.096 23083016.881 10 0 60147 35100.00000 0 10586020.335 -492208.428 23203911.682 10 0 60147 36000.00000 0 11043239.613 2316729.523 22874265.852 10 0 60147 36900.00000 0 11695307.925 5017665.283 22100296.705 10 0 60147 37800.00000 0 12513803.294 7545900.959 20896857.675 10 0 60147 38700.00000 0 13459725.826 9843744.589 19287164.675 10 0 60147 39600.00000 0 14485151.149 11862673.565 17302358.796 10 0 60147 40500.00000 0 15535280.958 13565118.938 14980912.506 10 0 60147 41400.00000 0 16550805.113 14925795.863 12367889.758 10 0 60147 42300.00000 0 17470475.940 15932524.198 9514073.566 10 0 60147 43200.00000 0 18233785.887 16586504.615 6474977.583 10 0 60147 44100.00000 0 18783634.627 16902038.582 3309760.930 10 0 60147 45000.00000 0 19068871.697 16905704.275 80067.960 10 0 60147 45900.00000 0 19046605.617 16635023.799 -3151183.516 10 0 60147 46800.00000 0 18684180.263 16136679.030 -6321040.672 10 0 60147 47700.00000 0 17960733.286 15464352.828 -9367755.130 10 0 60147 48600.00000 0 16868269.429 14676288.509 -12231997.812 10 0 60147 49500.00000 0 15412202.332 13832672.473 -14858024.175 10 0 60147 50400.00000 0 13611341.347 12992952.234 -17194766.020 10 0 60147 51300.00000 0 11497323.655 12213204.598 -19196827.943 10 0 60147 52200.00000 0 9113515.539 11543666.051 -20825368.847 10 0 60147 53100.00000 0 6513429.183 11026530.104 -22048851.539 10 0 60147 54000.00000 0 3758721.578 10694104.412 -22843646.543 10 0 60147 54900.00000 0 916859.350 10567404.797 -23194479.301 10 0 60147 55800.00000 0 -1941452.981 10655244.471 -23094713.287 10 0 60147 56700.00000 0 -4744974.490 10953855.608 -22546464.720 10 0 60147 57600.00000 0 -7424647.294 11447057.926 -21560547.853 10 0 60147 58500.00000 0 -9916221.868 12106965.977 -20156252.892 10 0 60147 59400.00000 0 -12162680.458 12895204.386 -18360961.686 10 0 60147 60300.00000 0 -14116359.501 13764579.192 -16209609.118 10 0 60147 61200.00000 0 -15740684.600 14661134.576 -13744000.949 10 0 60147 62100.00000 0 -17011447.804 15526508.351 -11012001.384 10 0 60147 63000.00000 0 -17917575.901 16300487.293 -8066605.921 10 0 60147 63900.00000 0 -18461359.519 16923655.143 -4964917.201 10 0 60147 64800.00000 0 -18658135.112 17340022.319 -1767043.334 10 0 60147 65700.00000 0 -18535434.518 17499527.170 1465060.435 10 0 60147 66600.00000 0 -18131638.757 17360303.911 4668784.661 10 0 60147 67500.00000 0 -17494193.244 16890622.086 7782070.680 10 0 60147 68400.00000 0 -16677459.653 16070415.994 10744604.781 10 0 60147 69300.00000 0 -15740294.683 14892339.478 13498978.988 10 0 60147 70200.00000 0 -14743457.186 13362301.139 15991796.545 10 0 60147 71100.00000 0 -13746952.164 11499456.409 18174701.296 10 0 60147 72000.00000 0 -12807422.686 9335655.432 20005311.563 10 0 60147 72900.00000 0 -11975698.774 6914368.034 21448040.941 10 0 60147 73800.00000 0 -11294605.795 4289128.653 22474790.468 10 0 60147 74700.00000 0 -10797124.234 1521563.960 23065498.895 10 0 60147 75600.00000 0 -10504978.215 -1320916.828 23208540.296 10 0 60147 76500.00000 0 -10427712.501 -4167674.863 22900960.900 10 0 60147 77400.00000 0 -10562297.490 -6947533.325 22148549.832 10 0 60147 78300.00000 0 -10893279.845 -9591497.261 20965741.393 10 0 60147 79200.00000 0 -11393473.586 -12035389.435 19375349.571 10 0 60147 80100.00000 0 -12025163.797 -14222292.891 17408138.611 10 0 60147 81000.00000 0 -12741773.293 -16104698.542 15102236.692 10 0 60147 81900.00000 0 -13489922.798 -17646267.921 12502402.936 10 0 60147 82800.00000 0 -14211798.043 -18823136.930 9659161.175 10 0 60147 83700.00000 0 -14847723.691 -19624705.555 6627816.831 10 0 60147 84600.00000 0 -15338834.634 -20053880.048 3467376.064 10 0 60147 85500.00000 0 -15629730.539 -20126757.325 239388.721 99